Weather History for Crestview, FL

Change the Weather History Date:

Tuesday, January 1, 2013

  Actual Average Record
Temperature  
Mean Temperature 64 °F -  
Max Temperature 74 °F - - ()
Min Temperature 55 °F - - ()
Growing Degree Days 14 (Base 50)    
Moisture  
Dew Point 61 °F    
Average Humidity 91    
Maximum Humidity 100    
Minimum Humidity 62    
Precipitation  
Precipitation 0.00 in - - ()
Sea Level Pressure  
Sea Level Pressure 30.02 in    
Wind  
Wind Speed 8 mph (South)    
Max Wind Speed 18 mph    
Max Gust Speed 25 mph    
Visibility 7 miles    
Events Fog , Rain    
T = Trace of Precipitation, MM = Missing Value Source: NWS Daily Summary

Daily Weather History Graph

Daily Weather History Graph

Search for Another Location

Airport:

Trip Planner

Search our weather history database for the weather conditions in past years. The results will help you decide how hot, cold, wet, or windy it might be!

Date:

Astronomy

Jan. 01, 2013 Rise Set
Actual Time 6:43 AM CST 4:56 PM CST
Civil Twilight 6:17 AM CST 5:22 PM CST
Nautical Twilight 5:47 AM CST 5:52 PM CST
Astronomical Twilight 5:17 AM CST 6:22 PM CST
Moon 9:07 PM CST (1/1) 9:12 AM CST (1/1)
Length of Visible Light 11h 05m
Length of Day
10h 12m
Waning Gibbous, 83% of the Moon is Illuminated
Jan 1
Waning Gibbous
Jan 4
Last Quarter
Jan 11
New
Jan 18
First Quarter
Jan 26
Full

Hourly Weather History & Observations

Time (CST) Temp. Dew Point Humidity Pressure Visibility Wind Dir Wind Speed Gust Speed Precip Events Conditions
12:14 AM 57.2 °F 51.8 °F 82% 30.13 in 10.0 mi SE 5.8 mph - N/A   Overcast
12:22 AM 57.2 °F 53.6 °F 88% 30.13 in 10.0 mi SE 5.8 mph - N/A   Overcast
12:23 AM 57.2 °F 53.6 °F 88% 30.13 in 10.0 mi SE 5.8 mph - N/A   Overcast
12:34 AM 57.2 °F 53.6 °F 88% 30.13 in 10.0 mi SSE 3.5 mph - N/A   Mostly Cloudy
12:55 AM 56.3 °F 53.2 °F 89% 30.12 in 10.0 mi SSE 5.8 mph - N/A   Scattered Clouds
1:55 AM 55.4 °F 54.1 °F 96% 30.11 in 10.0 mi Calm Calm - N/A   Mostly Cloudy
2:55 AM 55.0 °F 54.5 °F 98% 30.09 in 7.0 mi SSE 5.8 mph - N/A   Clear
3:55 AM 61.2 °F 59.9 °F 96% 30.06 in 10.0 mi South 10.4 mph - N/A   Clear
4:55 AM 60.4 °F 59.9 °F 98% 30.06 in 10.0 mi South 9.2 mph - N/A   Clear
5:55 AM 59.7 °F 59.5 °F 99% 30.05 in 10.0 mi South 8.1 mph - N/A   Clear
6:38 AM 59.0 °F 57.2 °F 94% 30.06 in 2.0 mi South 3.5 mph - N/A   Clear
6:39 AM 59.0 °F 57.2 °F 94% 30.06 in 1.5 mi South 4.6 mph - N/A   Clear
6:40 AM 57.2 °F 57.2 °F 100% 30.06 in 1.0 mi South 4.6 mph - N/A   Clear
6:41 AM 57.2 °F 57.2 °F 100% 30.06 in 0.8 mi South 4.6 mph - N/A   Clear
6:43 AM 57.2 °F 57.2 °F 100% 30.06 in 0.5 mi South 4.6 mph - N/A Fog Fog
6:46 AM 57.2 °F 57.2 °F 100% 30.06 in 0.2 mi South 5.8 mph - N/A Fog Fog
6:52 AM 57.2 °F 57.2 °F 100% 30.06 in 0.5 mi SSE 5.8 mph - N/A Fog Fog
6:55 AM 57.4 °F 57.2 °F 99% 30.06 in 0.5 mi SSE 5.8 mph - N/A Fog Fog
6:56 AM 57.2 °F 57.2 °F 100% 30.06 in 0.8 mi South 4.6 mph - N/A   Clear
6:58 AM 57.2 °F 57.2 °F 100% 30.06 in 1.0 mi SSE 4.6 mph - N/A   Clear
7:02 AM 57.2 °F 55.4 °F 94% 30.06 in 0.8 mi South 4.6 mph - N/A   Clear
7:04 AM 57.2 °F 55.4 °F 94% 30.06 in 0.5 mi South 4.6 mph - N/A Fog Fog
7:08 AM 57.2 °F 55.4 °F 94% 30.06 in 0.2 mi South 5.8 mph - N/A Fog Fog
7:25 AM 55.4 °F 55.4 °F 100% 30.06 in 0.5 mi South 4.6 mph - N/A Fog Fog
7:29 AM 57.2 °F 57.2 °F 100% 30.06 in 0.8 mi South 5.8 mph - N/A   Clear
7:31 AM 57.2 °F 57.2 °F 100% 30.06 in 1.0 mi South 5.8 mph - N/A   Clear
7:33 AM 57.2 °F 57.2 °F 100% 30.06 in 1.2 mi South 5.8 mph - N/A   Clear
7:34 AM 59.0 °F 57.2 °F 94% 30.06 in 1.5 mi South 5.8 mph - N/A   Clear
7:36 AM 59.0 °F 59.0 °F 100% 30.06 in 2.5 mi South 5.8 mph - N/A   Clear
7:37 AM 59.0 °F 59.0 °F 100% 30.06 in 3.0 mi South 5.8 mph - N/A   Clear
7:55 AM 60.6 °F 60.4 °F 99% 30.06 in 10.0 mi South 6.9 mph - N/A   Clear
8:55 AM 68.2 °F 60.6 °F 77% 30.07 in 10.0 mi South 10.4 mph - N/A   Clear
9:55 AM 72.3 °F 60.6 °F 67% 30.07 in 10.0 mi South 15.0 mph 25.3 mph N/A   Clear
10:55 AM 74.5 °F 60.8 °F 62% 30.06 in 10.0 mi South 18.4 mph - N/A   Partly Cloudy
11:55 AM 72.9 °F 61.2 °F 67% 30.04 in 10.0 mi South 12.7 mph - N/A   Partly Cloudy
12:55 PM 72.3 °F 61.3 °F 68% 30.00 in 10.0 mi South 16.1 mph - N/A   Scattered Clouds
1:55 PM 71.2 °F 62.1 °F 73% 29.99 in 10.0 mi South 15.0 mph - N/A   Mostly Cloudy
2:55 PM 70.9 °F 62.8 °F 75% 29.98 in 10.0 mi South 13.8 mph - N/A   Mostly Cloudy
3:55 PM 70.0 °F 63.7 °F 80% 29.98 in 10.0 mi South 10.4 mph - N/A   Scattered Clouds
3:57 PM 69.8 °F 62.6 °F 78% 29.98 in 10.0 mi South 9.2 mph - N/A   Mostly Cloudy
4:00 PM 69.8 °F 62.6 °F 78% 29.98 in 10.0 mi South 10.4 mph - N/A   Mostly Cloudy
4:26 PM 69.8 °F 64.4 °F 83% 29.98 in 10.0 mi South 10.4 mph - N/A   Light Drizzle
4:36 PM 68.0 °F 64.4 °F 88% 29.99 in 10.0 mi South 10.4 mph - N/A   Scattered Clouds
4:55 PM 68.9 °F 64.0 °F 84% 29.98 in 10.0 mi South 11.5 mph - 0.00 in   Mostly Cloudy
5:54 PM 68.0 °F 64.4 °F 88% 29.98 in 10.0 mi South 11.5 mph - N/A   Mostly Cloudy
5:55 PM 68.2 °F 64.9 °F 89% 29.98 in 10.0 mi South 10.4 mph - N/A   Mostly Cloudy
6:16 PM 68.0 °F 66.2 °F 94% 29.98 in 10.0 mi South 10.4 mph - N/A   Overcast
6:55 PM 68.5 °F 66.6 °F 93% 29.98 in 10.0 mi South 12.7 mph - N/A   Overcast
7:55 PM 68.9 °F 66.7 °F 93% 29.99 in 10.0 mi South 11.5 mph 20.7 mph N/A   Overcast
8:55 PM 68.7 °F 66.9 °F 94% 29.98 in 10.0 mi South 11.5 mph - N/A   Mostly Cloudy
9:13 PM 68.0 °F 68.0 °F 100% 29.99 in 10.0 mi SSW 10.4 mph - N/A   Overcast
9:55 PM 68.9 °F 67.5 °F 95% 29.98 in 10.0 mi SSW 10.4 mph - N/A   Overcast
9:58 PM 69.8 °F 68.0 °F 94% 29.98 in 10.0 mi SW 9.2 mph - N/A   Overcast
10:02 PM 69.8 °F 68.0 °F 94% 29.98 in 10.0 mi SSW 10.4 mph - N/A   Overcast
10:28 PM 69.8 °F 68.0 °F 94% 29.98 in 9.0 mi SSW 11.5 mph - N/A Rain Light Rain
10:31 PM 69.8 °F 66.2 °F 88% 29.98 in 9.0 mi SW 11.5 mph - N/A Rain Light Rain
10:32 PM 69.8 °F 66.2 °F 88% 29.98 in 9.0 mi SW 10.4 mph - N/A Rain Light Rain
10:38 PM 69.8 °F 66.2 °F 88% 29.98 in 10.0 mi SW 15.0 mph - N/A Rain Light Rain
10:39 PM 69.8 °F 66.2 °F 88% 29.98 in 10.0 mi SW 11.5 mph - N/A   Mostly Cloudy
10:41 PM 69.8 °F 66.2 °F 88% 29.98 in 10.0 mi SW 11.5 mph - N/A   Mostly Cloudy
10:55 PM 69.4 °F 66.4 °F 90% 29.98 in 10.0 mi SSW 12.7 mph 19.6 mph 0.00 in   Mostly Cloudy
11:10 PM 69.8 °F 66.2 °F 88% 29.97 in 10.0 mi SSW 13.8 mph - N/A   Mostly Cloudy
11:20 PM 69.8 °F 66.2 °F 88% 29.97 in 10.0 mi SSW 11.5 mph - N/A   Mostly Cloudy
11:21 PM 69.8 °F 66.2 °F 88% 29.97 in 10.0 mi SSW 10.4 mph - N/A   Mostly Cloudy
11:23 PM 69.8 °F 66.2 °F 88% 29.97 in 10.0 mi SSW 10.4 mph - N/A   Mostly Cloudy
11:24 PM 69.8 °F 66.2 °F 88% 29.97 in 10.0 mi SSW 10.4 mph - N/A   Mostly Cloudy
11:30 PM 69.8 °F 66.2 °F 88% 29.97 in 10.0 mi SSW 11.5 mph - N/A   Light Drizzle
11:31 PM 69.8 °F 66.2 °F 88% 29.97 in 9.0 mi SSW 10.4 mph - N/A   Light Drizzle
11:51 PM 69.8 °F 68.0 °F 94% 29.96 in 10.0 mi SW 12.7 mph - N/A   Light Drizzle
11:54 PM 68.0 °F 68.0 °F 100% 29.96 in 10.0 mi SW 10.4 mph - N/A   Scattered Clouds
11:55 PM 68.9 °F 67.1 °F 94% 29.96 in 10.0 mi SW 10.4 mph - 0.00 in   Light Drizzle